Regional Weather Roundup
Issued by NWS

Home | Current Version | Previous Version | Graphics & Text | Print | Product List | Glossary On
Versions: 1 2 3 4 5 6 7 8 9 10 11 12 13 14 15 16 17 18 19 20 21 22 23 24 25 26 27 28 29 30 31 32 33 34 35 36 37 38 39 40 41 42 43 44 45 46 47 48 49 50
000
ASUS45 KPSR 040910
RWRAZ

ARIZONA HOURLY REGIONAL WEATHER ROUNDUP
NATIONAL WEATHER SERVICE PHOENIX AZ
200 AM MST TUE AUG 04 2015

NOTE: FAIR INDICATES FEW OR NO CLOUDS BELOW 12,000 FEET WITH NO
SIGNIFICANT WEATHER AND/OR OBSTRUCTIONS TO VISIBILITY.

AZZ001>003-036-041000-
NORTHWEST ARIZONA

CITY           SKY/WX    TMP DP  RH WIND       PRES   REMARKS
BULLHEAD CITY  CLEAR     88  41  19 E8        29.74S
KINGMAN        CLEAR     80  36  20 S12       29.97S
$$

AZZ004>008-015-016-018-041000-
NORTH CENTRAL ARIZONA

CITY           SKY/WX    TMP DP  RH WIND       PRES   REMARKS
GRAND CANYON   CLEAR     48  38  68 CALM      30.26R
WILLIAMS       CLEAR     55  39  54 SE9       30.32F
PRESCOTT       CLEAR     66  44  45 S8        30.13S
FLAGSTAFF      CLEAR     54  42  64 SW3       30.29S
PAYSON         CLEAR     70  43  37 CALM      30.14F
PAGE           PTCLDY    82  43  25 N8        30.04R
$$

AZZ009>014-017-041000-
NORTHEAST ARIZONA

CITY           SKY/WX    TMP DP  RH WIND       PRES   REMARKS
WINSLOW        CLEAR     70  45  40 CALM      30.11R
SAINT JOHNS    CLEAR     67  47  48 CALM      30.17S
SHOW LOW       CLEAR     63  43  48 NE3       30.24S
$$

AZZ023-041000-
GREATER PHOENIX AREA

CITY           SKY/WX    TMP DP  RH WIND       PRES   REMARKS
PHOENIX        PTCLDY    96  49  20 NW10      29.78R
LUKE AFB       CLEAR     92  51  24 SW6       29.77S
DEER VALLEY    CLEAR     87  45  23 SE3       29.81S
SCOTTSDALE     CLEAR     88  52  29 CALM      29.83R
MESA-GATEWAY   CLEAR     82  43  24 E5        29.83S
$$

AZZ027-028-041000-
SOUTHWEST MARICOPA COUNTY AND PINAL COUNTY

CITY           SKY/WX    TMP DP  RH WIND       PRES   REMARKS
CASA GRANDE    CLEAR     88  55  33 W3        29.81R
GILA BEND      FAIR      88  51  27 W2        29.78S
$$

AZZ503-504-507>509-041000-
SOUTHEAST ARIZONA

CITY           SKY/WX    TMP DP  RH WIND       PRES   REMARKS
TUCSON         CLEAR     83  60  45 SE7       29.96R
DAVIS-MONTHAN  CLEAR     81  60  48 S7        29.94R
NOGALES        CLEAR     69  61  75 E3        30.05S
SIERRA VISTA   CLEAR     68  59  72 W7        30.11R
DOUGLAS        CLEAR     69  58  67 SE6       30.06R
SAFFORD        CLEAR     78  45  30 NW3       29.93R
$$

AZZ020-021-025-026-031-041000-
SOUTHWEST ARIZONA

CITY           SKY/WX    TMP DP  RH WIND       PRES   REMARKS
YUMA           CLEAR     90  54  29 E3        29.73S
$$

CAZ031-033-041-043-047-048-061-041000-
SOUTHERN CALIFORNIA

CITY           SKY/WX    TMP DP  RH WIND       PRES   REMARKS
DOWNTOWN L.A.  CLEAR     69  63  81 CALM      29.87F
L.A. AIRPORT   PTCLDY    68  62  81 CALM      29.88S
SAN DIEGO      PTCLDY    70  64  81 CALM      29.89S
BURBANK        CLEAR     72  59  63 CALM      29.88F
ONTARIO        PTCLDY    70  59  68 W3        29.89F
RIVERSIDE      CLEAR     71  61  70 W3        29.90S
PALM SPRINGS   CLEAR     84  57  39 SW5       29.77R
EL CENTRO NAS  CLEAR     86  44  23 W5        29.73S
IMPERIAL       CLEAR     85  55  35 CALM      29.71S
BLYTHE         CLEAR     91  35  13 S3        29.74S
NEEDLES        CLEAR     95  36  12 W6        29.75R
$$

NVZ020-UTZ003-041000-
SOUTHERN NEVADA-UTAH

CITY           SKY/WX    TMP DP  RH WIND       PRES   REMARKS
LAS VEGAS      PTCLDY    88  27  11 S6        29.80R
SALT LAKE CITY CLEAR     62  54  74 SE5       30.08S
$$

NMZ009-TXZ055-041000-
NEW MEXICO-WEST TEXAS

CITY           SKY/WX    TMP DP  RH WIND       PRES   REMARKS
ALBUQUERQUE    PTCLDY    72  49  44 W5        30.14S
EL PASO        PTCLDY    76  59  55 SE7       30.02S
$$


........................KEY........................
SKY/WX - SKY CONDITION/WEATHER
TMP    - TEMPERATURE IN FAHRENHEIT
DP     - DEW POINT IN FAHRENHEIT
RH     - RELATIVE HUMIDITY IN PERCENT
WIND   - DIRECTION AND SPEED IN MILES PER HOUR (MPH)
VRB    - VARIABLE WIND DIRECTION
PRES   - MEAN SEA LEVEL PRESSURE IN INCHES OF MERCURY
         F - FALLING PRESSURE   R - RISING PRESSURE
         S - STEADY PRESSURE
VSB    - VISIBILITY IN MILES
HX     - HEAT INDEX IN FAHRENHEIT
WCI    - WIND CHILL INDEX IN FAHRENHEIT
TC     - TEMPERATURE IN CELSIUS WHICH IS ALSO KNOWN AS
         TEMPERATURE IN CENTIGRADE
AFB    - AIR FORCE BASE
         LUKE AFB IS LUKE AIR FORCE BASE
         DAVIS-MONTHAN IS DAVIS-MONTHAN AIR FORCE BASE
NAS    - NAVAL AIR STATION
         EL CENTRO NAS IS EL CENTRO NAVAL AIR STATION
N/A    - NOT AVAILABLE




USA.gov is the U.S. government's official web portal to all federal, state and local government web resources and services.